Printer-friendly version
Follow the MPC on Twitter Follow the MPC on Facebook The MPC blog
Minor Planet Center

MPEC 2010-F37 : 2010 FU

The following Minor Planet Electronic Circular may be linked-to from your own Web pages, but must not otherwise be redistributed electronically.

A form allowing access to any MPEC is at the bottom of this page.


Read MPEC 2010-F36 Read MPEC 2010-F38


M.P.E.C. 2010-F37                                Issued 2010 Mar. 18, 22:21 UT

     The Minor Planet Electronic Circulars contain information on unusual
         minor planets and routine data on comets.  They are published
   on behalf of Commission 20 of the International Astronomical Union by the
          Minor Planet Center, Smithsonian Astrophysical Observatory,
                          Cambridge, MA 02138, U.S.A.

             Prepared using the Tamkin Foundation Computer Network

                              MPC@CFA.HARVARD.EDU
       URL http://www.minorplanetcenter.org/iau/mpc.html  ISSN 1523-6714

                                    2010 FU

Observations:
     K10F00U* C2010 03 18.43377 13 35 28.14 +36 16 25.3          19.2 V EF037703
     K10F00U  C2010 03 18.43955 13 35 28.14 +36 14 16.1          18.7 V EF037703
     K10F00U  C2010 03 18.44537 13 35 28.17 +36 12 01.9          18.8 V EF037703
     K10F00U  C2010 03 18.45123 13 35 28.24 +36 09 49.6          18.8 V EF037703
     K10F00U  C2010 03 18.47674 13 35 28.50 +36 00 09.1          18.9 V EF037703
     K10F00U  C2010 03 18.47734 13 35 28.53 +35 59 55.1          19.3 V EF037703
     K10F00U  C2010 03 18.47792 13 35 28.57 +35 59 40.7          18.7 V EF037703
     K10F00U  C2010 03 18.47849 13 35 28.57 +35 59 27.7          18.9 V EF037703
     K10F00U  C2010 03 18.48319 13 35 28.10 +35 57 31.8          17.2 R EF037H01
     K10F00U  C2010 03 18.48907 13 35 28.22 +35 55 16.6          18.5 R EF037H01
     K10F00U  C2010 03 18.49351 13 35 28.83 +35 53 47.9          18.5 R EF037926
     K10F00U  C2010 03 18.49527 13 35 28.87 +35 53 07.7          18.9 R EF037926
     K10F00U  C2010 03 18.49704 13 35 28.88 +35 52 27.2          19.0 R EF037926
     K10F00U  C2010 03 18.49827 13 35 28.49 +35 51 45.2          18.3 R EF037H01
     K10F00U  C2010 03 18.50394 13 35 28.63 +35 49 35.1          18.9 R EF037H01
     K10F00U  C2010 03 18.52398 13 35 29.69 +35 42 02.8          18.8 V EF037703
     K10F00U  C2010 03 18.52452 13 35 29.74 +35 41 50.9          19.5 V EF037703
     K10F00U  C2010 03 18.52512 13 35 29.69 +35 41 35.4          18.7 V EF037703

Observer details:
703 Catalina Sky Survey.  Observer A. Boattini.  Measurers J. D. Ahern,
    E. C. Beshore, A. Boattini, G. J. Garradd, A. R. Gibbs, A. D. Grauer,
    R. E. Hill, R. A. Kowalski, S. M. Larson, R. H. McNaught.  0.68-m Schmidt
    + CCD.
926 Tenagra II Observatory.  Observers P. R. Holvorcem, M. Schwartz.  Measurer
    P. R. Holvorcem.  0.81-m f/7 Ritchey-Chretien + CCD.
H01 Magdalena Ridge Observatory, Socorro.  Observers W. H. Ryan, E. V. Ryan.
    Measurer W. H. Ryan.  2.4-m f/8.9 reflector + CCD.

Orbital elements:
2010 FU                                                  Earth MOID = 0.0372 AU
Epoch 2010 Jan. 4.0 TT = JDT 2455200.5                  MPC
M 333.59563              (2000.0)            P               Q
n   0.41236038     Peri.  161.57683     -0.97348858     -0.22794996
a   1.7876593      Node     5.35519     +0.17592651     -0.79908873
e   0.4289682      Incl.   11.71009     +0.14618432     -0.55632366
P   2.39           H   24.2           G   0.15           U   9
Residuals in seconds of arc
100318 703  0.3+  0.3-    100318 703  0.0   0.8-    100318 926  0.1+  0.5+
100318 703  0.1-  1.3+    100318 703  0.1-  0.8-    100318 H01  0.2+  0.2-
100318 703  0.2-  0.9-    100318 H01  0.2+  0.2+    100318 H01  0.1-  0.2+
100318 703  0.0   0.2-    100318 H01  0.1-  0.1-    100318 703  0.1-  0.1+
100318 703  0.6-  0.6+    100318 926  0.4+  0.1+    100318 703  0.3+  0.7+
100318 703  0.3-  0.3+    100318 926  0.5+  0.3+    100318 703  0.5-  1.0-

Ephemeris:
2010 FU                  a,e,i = 1.79, 0.43, 12                  q = 1.0208
Date    TT    R. A. (2000) Decl.     Delta      r     Elong.  Phase     V
2010 03 15    13 28.86   +54 06.0    0.0502   1.023   123.5    54.1    19.7
2010 03 20    13 37.78   +25 54.3    0.0393   1.028   144.7    34.0    18.6
2010 03 25    13 42.54   -08 49.6    0.0422   1.036   157.1    22.0    18.5
2010 03 30    13 44.76   -31 50.2    0.0571   1.047   147.1    31.2    19.4
2010 04 04    13 45.25   -43 48.6    0.0774   1.060   139.9    37.4    20.3
2010 04 09    13 44.55   -50 11.7    0.100    1.076   136.6    39.7    20.9
2010 04 14    13 43.26   -53 43.7    0.124    1.095   135.4    40.0    21.4
2010 04 19    13 41.96   -55 38.5    0.148    1.115   135.4    39.3    21.9
2010 04 24    13 41.14   -56 32.8    0.174    1.137   135.9    38.0    22.2

Sonia Keys                   (C) Copyright 2010 MPC           M.P.E.C. 2010-F37

Read MPEC 2010-F36 Read MPEC 2010-F38


MPEC number:

Enter an MPEC number in one of the following forms:

  • 1997-B01 (the full form)
  • J97B01 (the packed version of the full form)
  • B01 (the abbreviated form)

Valid HTML 4.01!